SV1SSL-2 Weather Reports


Display with metric or nautical units.
time (UTC)temp
F
wind
direction
speed
MPH
gust
MPH
rain 1hr
in
rain 24hr
in
rain mn
in
humidity
%
barometer
mb
20260507232604 64 135 0.0 1.0 0.00 0.00 0.00 57 1014.2
20260507232404 64 135 0.0 1.0 0.00 0.00 0.00 56 1014.2
20260507232204 64 135 0.0 1.0 0.00 0.00 0.00 56 1014.2
20260507232004 64 135 0.0 1.0 0.00 0.00 0.00 56 1014.1
20260507231804 64 135 0.0 1.0 0.00 0.00 0.00 56 1014.1
20260507231604 64 135 0.0 2.0 0.00 0.00 0.00 56 1013.9
20260507231404 64 135 0.0 2.0 0.00 0.00 0.00 56 1013.9
20260507231204 64 135 0.0 2.0 0.00 0.00 0.00 56 1013.9
20260507230804 64 135 0.0 2.0 0.00 0.00 0.00 55 1013.9
20260507230604 64 135 0.0 2.0 0.00 0.00 0.00 55 1014.0
20260507230404 64 135 0.0 2.0 0.00 0.00 0.00 55 1014.1
20260507230204 64 135 0.0 2.0 0.00 0.00 0.00 55 1014.1
20260507230005 64 135 0.0 2.0 0.00 0.00 0.00 55 1014.1
20260507225804 64 135 0.0 2.0 0.00 0.00 0.00 55 1014.1
20260507225604 64 135 0.0 2.0 0.00 0.00 0.00 55 1014.3
20260507225404 64 135 0.0 2.0 0.00 0.00 0.00 55 1014.2
20260507225205 64 135 0.0 2.0 0.00 0.00 0.00 55 1014.1
20260507225004 64 135 0.0 2.0 0.00 0.00 0.00 54 1014.4
20260507224804 64 135 0.0 2.0 0.00 0.00 0.00 54 1014.2
20260507224605 64 135 0.0 2.0 0.00 0.00 0.00 54 1014.3
20260507224404 64 135 0.0 2.0 0.00 0.00 0.00 54 1014.3
20260507224204 65 135 0.0 2.0 0.00 0.00 0.00 54 1014.3
20260507224004 65 135 0.0 2.0 0.00 0.00 0.00 55 1014.3
20260507223604 65 140 0.0 2.0 0.00 0.00 0.00 54 1014.4
20260507223404 64 141 0.0 2.0 0.00 0.00 0.00 55 1014.4
20260507223204 65 136 0.0 2.0 0.00 0.00 0.00 54 1014.3
20260507223004 64 139 0.0 2.0 0.00 0.00 0.00 54 1014.4
20260507222804 65 125 0.0 2.0 0.00 0.00 0.00 54 1014.4
20260507222604 65 114 0.0 3.0 0.00 0.00 0.00 54 1014.3
20260507222404 65 112 0.0 3.0 0.00 0.00 0.00 54 1014.4
20260507222204 65 105 0.0 3.0 0.00 0.00 0.00 54 1014.3
20260507222004 65 103 0.0 3.0 0.00 0.00 0.00 55 1014.3
20260507221804 65 107 0.0 3.0 0.00 0.00 0.00 55 1014.5
20260507221604 65 111 0.0 3.0 0.00 0.00 0.00 54 1014.4
20260507221404 64 103 0.0 3.0 0.00 0.00 0.00 54 1014.2
20260507221204 64 103 0.0 2.0 0.00 0.00 0.00 53 1014.6
20260507221004 65 99 0.0 2.0 0.00 0.00 0.00 53 1014.4
20260507220804 65 91 0.0 2.0 0.00 0.00 0.00 53 1014.5
20260507220604 65 90 0.0 2.0 0.00 0.00 0.00 53 1014.7
20260507220404 65 90 0.0 2.0 0.00 0.00 0.00 53 1014.5
20260507220004 65 90 0.0 2.0 0.00 0.00 0.00 53 1014.4
20260507215804 65 90 0.0 1.0 0.00 0.00 0.00 53 1014.6
20260507215604 65 90 0.0 2.0 0.00 0.00 0.00 53 1014.7
20260507215404 65 90 0.0 2.0 0.00 0.00 0.00 53 1014.7
20260507215004 65 90 0.0 2.0 0.00 0.00 0.00 53 1014.6
20260507214804 65 90 0.0 2.0 0.00 0.00 0.00 53 1014.8
20260507214404 65 92 0.0 2.0 0.00 0.00 0.00 53 1014.9
20260507214204 65 100 0.0 2.0 0.00 0.00 0.00 53 1014.8
20260507213804 65 122 0.0 2.0 0.00 0.00 0.00 53 1014.7
20260507213604 65 123 0.0 2.0 0.00 0.00 0.00 52 1014.5
20260507213404 65 131 0.0 2.0 0.00 0.00 0.00 52 1014.9
20260507213204 65 123 0.0 2.0 0.00 0.00 0.00 52 1014.8
20260507213005 65 121 0.0 2.0 0.00 0.00 0.00 53 1014.8
20260507212804 65 99 0.0 2.0 0.00 0.00 0.00 53 1015.0
20260507212604 65 99 0.0 3.0 0.00 0.00 0.00 53 1014.8
20260507212404 65 93 0.0 3.0 0.00 0.00 0.00 53 1014.8
20260507212204 65 98 0.0 3.0 0.00 0.00 0.00 52 1014.8
20260507212004 65 87 0.0 3.0 0.00 0.00 0.00 52 1014.8
20260507211805 65 102 0.0 3.0 0.00 0.00 0.00 52 1014.8
20260507211604 65 138 0.0 2.0 0.00 0.00 0.00 52 1014.8
20260507211404 65 248 0.0 2.0 0.00 0.00 0.00 52 1014.9
20260507211205 65 0 0.0 0.0 0.00 0.00 0.00 52 1014.8
20260507210604 65 0 0.0 0.0 0.00 0.00 0.00 51 1014.8
20260507210404 65 0 0.0 0.0 0.00 0.00 0.00 51 1014.8
20260507210204 65 0 0.0 0.0 0.00 0.00 0.00 51 1014.9
20260507210006 65 0 0.0 0.0 0.00 0.00 0.00 51 1014.8
20260507205804 66 248 0.0 1.0 0.00 0.00 0.00 51 1014.9
20260507205204 66 248 0.0 1.0 0.00 0.00 0.00 51 1014.8
20260507205005 65 248 0.0 1.0 0.00 0.00 0.00 51 1014.7
20260507204804 65 0 0.0 0.0 0.00 0.00 0.00 51 1014.6
20260507204604 66 0 0.0 0.0 0.00 0.00 0.00 50 1014.7
20260507204204 66 248 0.0 2.0 0.00 0.00 0.00 50 1014.9
20260507203604 66 248 0.0 2.0 0.00 0.00 0.00 51 1014.9
20260507203204 66 248 0.0 2.0 0.00 0.00 0.00 49 1014.9
20260507202805 66 248 0.0 2.0 0.00 0.00 0.00 49 1014.8
20260507202604 66 249 0.0 2.0 0.00 0.00 0.00 49 1014.7
20260507202204 67 236 0.0 2.0 0.00 0.00 0.00 49 1014.7
20260507202005 66 228 0.0 2.0 0.00 0.00 0.00 49 1014.7
20260507201804 66 231 0.0 2.0 0.00 0.00 0.00 49 1014.8
20260507201604 67 235 0.0 3.0 0.00 0.00 0.00 49 1014.8
20260507201405 67 238 0.0 3.0 0.00 0.00 0.00 49 1015.0
20260507201205 66 245 0.0 3.0 0.00 0.00 0.00 49 1014.7
20260507201004 67 249 1.0 3.0 0.00 0.00 0.00 49 1014.7
20260507200804 67 246 0.0 3.0 0.00 0.00 0.00 49 1014.7
20260507200604 67 248 0.0 3.0 0.00 0.00 0.00 49 1014.7
20260507200405 67 247 0.0 3.0 0.00 0.00 0.00 49 1014.8
20260507200204 67 243 0.0 3.0 0.00 0.00 0.00 49 1014.6
20260507200005 67 220 0.0 2.0 0.00 0.00 0.00 49 1014.8
20260507195805 67 217 0.0 3.0 0.00 0.00 0.00 49 1014.5
20260507195604 67 219 1.0 3.0 0.00 0.00 0.00 49 1014.6
20260507195404 66 220 1.0 3.0 0.00 0.00 0.00 49 1014.6
20260507195204 67 218 1.0 3.0 0.00 0.00 0.00 49 1014.7
20260507195005 67 228 1.0 3.0 0.00 0.00 0.00 49 1014.7
20260507194805 66 235 1.0 3.0 0.00 0.00 0.00 49 1014.6
20260507194404 66 43 0.0 3.0 0.00 0.00 0.00 49 1014.7
20260507194004 66 35 0.0 3.0 0.00 0.00 0.00 50 1014.5
20260507193405 67 53 0.0 2.0 0.00 0.00 0.00 49 1014.5
20260507193204 66 61 0.0 2.0 0.00 0.00 0.00 49 1014.4
20260507193005 66 80 0.0 2.0 0.00 0.00 0.00 49 1014.5
20260507192805 66 77 0.0 2.0 0.00 0.00 0.00 49 1014.6
20260507192604 66 81 0.0 2.0 0.00 0.00 0.00 48 1014.7
20260507192405 67 81 0.0 2.0 0.00 0.00 0.00 49 1014.6
20260507192204 66 120 0.0 2.0 0.00 0.00 0.00 48 1014.6
20260507192005 67 135 0.0 2.0 0.00 0.00 0.00 49 1014.3
20260507191804 66 135 0.0 2.0 0.00 0.00 0.00 49 1014.7
20260507191605 66 123 0.0 2.0 0.00 0.00 0.00 49 1014.3
20260507191205 67 94 0.0 2.0 0.00 0.00 0.00 49 1014.5
20260507191004 67 99 1.0 2.0 0.00 0.00 0.00 49 1014.6
20260507190604 67 102 0.0 2.0 0.00 0.00 0.00 50 1014.3
20260507190405 67 123 0.0 3.0 0.00 0.00 0.00 49 1014.5
20260507185804 67 82 0.0 4.0 0.00 0.00 0.00 50 1014.4
20260507185604 67 59 1.0 4.0 0.00 0.00 0.00 50 1014.7
20260507185004 67 47 0.0 4.0 0.00 0.00 0.00 50 1014.6
20260507184804 67 56 0.0 4.0 0.00 0.00 0.00 51 1014.6
20260507184404 67 77 0.0 2.0 0.00 0.00 0.00 50 1014.6
20260507184204 67 79 0.0 3.0 0.00 0.00 0.00 50 1014.7
20260507183604 68 13 0.0 3.0 0.00 0.00 0.00 50 1014.4
20260507183405 68 8 0.0 3.0 0.00 0.00 0.00 49 1014.5
20260507183204 68 351 0.0 3.0 0.00 0.00 0.00 49 1014.3
20260507182804 68 194 0.0 2.0 0.00 0.00 0.00 49 1014.5
20260507182604 68 148 0.0 2.0 0.00 0.00 0.00 49 1014.4
20260507182405 68 92 0.0 2.0 0.00 0.00 0.00 48 1014.3
20260507182204 68 92 0.0 2.0 0.00 0.00 0.00 48 1014.3
20260507182005 68 89 0.0 2.0 0.00 0.00 0.00 49 1014.3
20260507181804 68 90 0.0 2.0 0.00 0.00 0.00 48 1014.2
20260507181604 68 93 0.0 2.0 0.00 0.00 0.00 49 1014.3
20260507181004 68 104 0.0 2.0 0.00 0.00 0.00 48 1014.4
20260507180804 68 106 0.0 3.0 0.00 0.00 0.00 48 1014.5
20260507180604 68 104 0.0 3.0 0.00 0.00 0.00 49 1014.5
20260507180404 68 104 0.0 3.0 0.00 0.00 0.00 49 1014.2
20260507180204 68 102 0.0 3.0 0.00 0.00 0.00 49 1014.3
20260507180004 68 108 0.0 3.0 0.00 0.00 0.00 49 1014.1
20260507175804 68 106 0.0 3.0 0.00 0.00 0.00 49 1014.3
20260507175604 68 106 0.0 3.0 0.00 0.00 0.00 49 1014.3
20260507175404 68 125 0.0 3.0 0.00 0.00 0.00 49 1014.2
20260507175204 68 135 0.0 2.0 0.00 0.00 0.00 49 1014.3
20260507175004 68 152 0.0 3.0 0.00 0.00 0.00 49 1014.2
20260507174605 69 151 0.0 4.0 0.00 0.00 0.00 49 1014.2
20260507174204 69 219 0.0 4.0 0.00 0.00 0.00 49 1014.1
20260507174004 68 345 1.0 6.0 0.00 0.00 0.00 48 1014.2
20260507173804 68 343 1.0 6.0 0.00 0.00 0.00 49 1014.3
20260507173604 69 353 1.0 6.0 0.00 0.00 0.00 50 1014.5
20260507173405 68 334 2.0 6.0 0.00 0.00 0.00 50 1014.3
20260507173005 69 328 1.0 5.0 0.00 0.00 0.00 50 1014.2
20260507172804 69 320 1.0 4.0 0.00 0.00 0.00 51 1014.3
20260507172604 69 317 1.0 4.0 0.00 0.00 0.00 51 1014.2
20260507172404 69 316 1.0 4.0 0.00 0.00 0.00 51 1014.2
20260507172204 69 320 2.0 5.0 0.00 0.00 0.00 51 1014.2
20260507172005 69 305 2.0 5.0 0.00 0.00 0.00 51 1014.2
20260507171804 69 302 2.0 5.0 0.00 0.00 0.00 51 1014.1
20260507171605 69 305 2.0 7.0 0.00 0.00 0.00 50 1014.2
20260507171404 69 315 3.0 7.0 0.00 0.00 0.00 50 1014.0
20260507171205 69 310 2.0 7.0 0.00 0.00 0.00 50 1014.1
20260507171004 69 305 2.0 7.0 0.00 0.00 0.00 50 1014.1
20260507170604 70 293 2.0 6.0 0.00 0.00 0.00 48 1013.9
20260507170404 70 279 2.0 5.0 0.00 0.00 0.00 48 1013.8
20260507170204 70 275 2.0 5.0 0.00 0.00 0.00 47 1013.6
20260507170005 70 271 2.0 5.0 0.00 0.00 0.00 47 1013.8
20260507165804 71 263 1.0 5.0 0.00 0.00 0.00 46 1013.7
20260507165604 71 239 1.0 4.0 0.00 0.00 0.00 45 1013.7
20260507165404 71 233 1.0 4.0 0.00 0.00 0.00 45 1013.8
20260507165205 71 201 0.0 3.0 0.00 0.00 0.00 44 1013.4
20260507165004 71 118 0.0 3.0 0.00 0.00 0.00 44 1013.5
20260507164805 71 60 0.0 3.0 0.00 0.00 0.00 43 1013.2
20260507164604 71 44 0.0 3.0 0.00 0.00 0.00 43 1013.3
20260507164204 71 56 1.0 4.0 0.00 0.00 0.00 42 1013.4
20260507164005 71 74 1.0 4.0 0.00 0.00 0.00 42 1013.4
20260507163604 72 107 1.0 4.0 0.00 0.00 0.00 40 1013.3
20260507163404 72 123 0.0 4.0 0.00 0.00 0.00 38 1013.6
20260507162804 72 68 1.0 4.0 0.00 0.00 0.00 35 1013.6
20260507162404 73 59 1.0 4.0 0.00 0.00 0.00 33 1013.8
20260507162204 73 57 1.0 4.0 0.00 0.00 0.00 31 1013.7
20260507162004 73 64 1.0 4.0 0.00 0.00 0.00 31 1013.8
20260507161804 73 94 0.0 4.0 0.00 0.00 0.00 26 1013.8
20260507161604 74 100 0.0 3.0 0.00 0.00 0.00 24 1013.8
20260507161204 74 117 0.0 3.0 0.00 0.00 0.00 25 1013.7
20260507161005 74 104 0.0 3.0 0.00 0.00 0.00 24 1013.8
20260507160804 74 110 0.0 3.0 0.00 0.00 0.00 23 1013.6
20260507160604 74 124 0.0 3.0 0.00 0.00 0.00 24 1013.7
20260507160404 74 118 0.0 3.0 0.00 0.00 0.00 24 1013.7
20260507160204 74 131 0.0 3.0 0.00 0.00 0.00 25 1013.6
20260507160004 74 206 1.0 4.0 0.00 0.00 0.00 24 1013.5
20260507155804 74 224 1.0 8.0 0.00 0.00 0.00 25 1013.5
20260507155604 74 220 2.0 8.0 0.00 0.00 0.00 25 1013.6
20260507155404 73 223 3.0 8.0 0.00 0.00 0.00 25 1013.6
20260507155204 73 229 4.0 10.0 0.00 0.00 0.00 25 1013.7
20260507155004 74 229 4.0 10.0 0.00 0.00 0.00 24 1013.8
20260507154804 74 241 5.0 10.0 0.00 0.00 0.00 24 1013.8
20260507154604 74 249 5.0 11.0 0.00 0.00 0.00 23 1013.8
20260507154405 74 259 5.0 11.0 0.00 0.00 0.00 23 1013.8
20260507154204 74 257 5.0 11.0 0.00 0.00 0.00 23 1013.8
20260507154004 75 254 5.0 11.0 0.00 0.00 0.00 23 1014.0
20260507153804 75 244 4.0 11.0 0.00 0.00 0.00 23 1013.9
20260507153604 76 244 4.0 10.0 0.00 0.00 0.00 22 1013.8
20260507153205 76 243 5.0 11.0 0.00 0.00 0.00 22 1013.9
20260507153004 76 248 5.0 11.0 0.00 0.00 0.00 23 1013.8
20260507152805 76 250 5.0 11.0 0.00 0.00 0.00 23 1013.9
20260507152604 76 251 6.0 12.0 0.00 0.00 0.00 23 1014.1
20260507152404 76 251 5.0 12.0 0.00 0.00 0.00 23 1013.9
20260507152204 76 251 5.0 12.0 0.00 0.00 0.00 23 1014.2
20260507152004 76 254 5.0 12.0 0.00 0.00 0.00 22 1014.0
20260507151805 76 253 5.0 12.0 0.00 0.00 0.00 23 1013.9
20260507151604 76 253 5.0 11.0 0.00 0.00 0.00 24 1014.0
20260507151404 76 252 5.0 11.0 0.00 0.00 0.00 24 1014.0
20260507151204 76 246 5.0 11.0 0.00 0.00 0.00 24 1014.0
20260507151004 75 247 6.0 11.0 0.00 0.00 0.00 25 1014.0
20260507150804 75 247 7.0 13.0 0.00 0.00 0.00 25 1014.0
20260507150604 75 249 7.0 13.0 0.00 0.00 0.00 25 1014.0
20260507150204 75 254 8.0 13.0 0.00 0.00 0.00 25 1014.0
20260507150005 75 253 7.0 13.0 0.00 0.00 0.00 25 1014.1
20260507145804 75 254 6.0 13.0 0.00 0.00 0.00 22 1014.0
20260507145604 76 255 6.0 12.0 0.00 0.00 0.00 23 1014.0
20260507145405 76 257 6.0 12.0 0.00 0.00 0.00 25 1014.0
20260507145204 76 258 6.0 12.0 0.00 0.00 0.00 25 1014.1
20260507145004 76 261 7.0 12.0 0.00 0.00 0.00 24 1013.9
20260507144804 76 260 7.0 12.0 0.00 0.00 0.00 24 1014.0
20260507144604 76 257 7.0 12.0 0.00 0.00 0.00 23 1013.9
20260507144405 76 261 7.0 15.0 0.00 0.00 0.00 23 1013.8
20260507144204 76 262 7.0 15.0 0.00 0.00 0.00 23 1014.0
20260507144004 76 250 6.0 15.0 0.00 0.00 0.00 23 1014.2
20260507143804 76 253 6.0 15.0 0.00 0.00 0.00 24 1013.9
20260507143604 76 255 6.0 15.0 0.00 0.00 0.00 23 1013.9
20260507143404 76 245 5.0 15.0 0.00 0.00 0.00 23 1013.8
20260507143204 77 231 5.0 12.0 0.00 0.00 0.00 24 1014.0
20260507143005 77 237 5.0 12.0 0.00 0.00 0.00 25 1014.1
20260507142804 77 236 5.0 14.0 0.00 0.00 0.00 25 1014.0
20260507142204 76 250 7.0 15.0 0.00 0.00 0.00 25 1013.8
20260507142004 76 244 7.0 15.0 0.00 0.00 0.00 25 1013.8
20260507141804 76 245 7.0 15.0 0.00 0.00 0.00 25 1014.0
20260507141604 76 239 6.0 15.0 0.00 0.00 0.00 25 1013.8
20260507141404 77 239 6.0 15.0 0.00 0.00 0.00 24 1013.8
20260507141205 77 227 6.0 15.0 0.00 0.00 0.00 23 1014.0
20260507141004 77 236 6.0 14.0 0.00 0.00 0.00 23 1013.9
20260507140804 77 234 6.0 14.0 0.00 0.00 0.00 23 1013.8
20260507140604 78 232 6.0 14.0 0.00 0.00 0.00 23 1013.6
20260507140404 78 242 7.0 14.0 0.00 0.00 0.00 22 1013.8
20260507140205 78 247 7.0 14.0 0.00 0.00 0.00 22 1013.4
20260507140006 78 256 6.0 14.0 0.00 0.00 0.00 21 1013.5
20260507135804 79 257 6.0 13.0 0.00 0.00 0.00 22 1013.6
20260507135605 78 262 6.0 15.0 0.00 0.00 0.00 22 1013.5
20260507135404 79 259 6.0 15.0 0.00 0.00 0.00 22 1013.4
20260507135205 78 264 6.0 15.0 0.00 0.00 0.00 21 1013.7
20260507135005 79 259 6.0 15.0 0.00 0.00 0.00 21 1013.5
20260507134804 79 258 6.0 15.0 0.00 0.00 0.00 21 1013.5
20260507134605 79 258 6.0 15.0 0.00 0.00 0.00 21 1013.5
20260507134404 78 255 6.0 13.0 0.00 0.00 0.00 22 1013.5
20260507134005 79 248 6.0 13.0 0.00 0.00 0.00 20 1013.5
20260507133804 79 244 5.0 12.0 0.00 0.00 0.00 20 1013.4
20260507133605 79 246 5.0 12.0 0.00 0.00 0.00 19 1013.6
20260507133204 79 248 5.0 12.0 0.00 0.00 0.00 21 1013.6
20260507133004 78 249 6.0 13.0 0.00 0.00 0.00 20 1013.3
20260507132808 78 251 6.0 13.0 0.00 0.00 0.00 21 1013.4
20260507132605 78 249 5.0 13.0 0.00 0.00 0.00 20 1013.6
20260507132404 78 250 6.0 13.0 0.00 0.00 0.00 19 1013.3
20260507132204 78 253 5.0 13.0 0.00 0.00 0.00 19 1013.4
20260507131804 78 259 5.0 10.0 0.00 0.00 0.00 20 1013.4
20260507131605 78 260 5.0 10.0 0.00 0.00 0.00 19 1013.4
20260507131404 78 256 5.0 10.0 0.00 0.00 0.00 18 1013.6
20260507131005 79 254 4.0 10.0 0.00 0.00 0.00 20 1013.4
20260507130804 78 250 3.0 10.0 0.00 0.00 0.00 23 1013.4
20260507130604 79 256 3.0 10.0 0.00 0.00 0.00 22 1013.7
20260507130205 78 257 3.0 8.0 0.00 0.00 0.00 25 1013.5
20260507130004 78 257 4.0 8.0 0.00 0.00 0.00 27 1013.7
20260507125804 77 259 4.0 9.0 0.00 0.00 0.00 27 1013.7
20260507125605 77 256 4.0 11.0 0.00 0.00 0.00 27 1013.9
20260507125404 76 253 5.0 11.0 0.00 0.00 0.00 25 1013.6
20260507125205 76 251 5.0 11.0 0.00 0.00 0.00 26 1013.8
20260507125004 76 251 5.0 11.0 0.00 0.00 0.00 27 1013.9
20260507124804 76 253 5.0 11.0 0.00 0.00 0.00 28 1014.0
20260507124604 76 257 5.0 11.0 0.00 0.00 0.00 27 1013.9
20260507124405 76 255 5.0 11.0 0.00 0.00 0.00 27 1014.1
20260507124204 76 256 5.0 11.0 0.00 0.00 0.00 27 1014.1
20260507124004 77 257 5.0 11.0 0.00 0.00 0.00 26 1014.0
20260507123404 77 248 5.0 11.0 0.00 0.00 0.00 24 1014.2
20260507123204 77 246 4.0 11.0 0.00 0.00 0.00 22 1014.1
20260507123004 77 239 4.0 11.0 0.00 0.00 0.00 26 1013.9
20260507122804 77 238 5.0 13.0 0.00 0.00 0.00 25 1013.9
20260507122604 77 244 5.0 13.0 0.00 0.00 0.00 25 1014.1
20260507122205 77 243 6.0 13.0 0.00 0.00 0.00 23 1014.1
20260507121604 78 252 6.0 14.0 0.00 0.00 0.00 22 1014.2
20260507121404 78 262 6.0 14.0 0.00 0.00 0.00 21 1014.2
20260507121204 78 258 6.0 17.0 0.00 0.00 0.00 22 1014.3
20260507121005 78 265 7.0 17.0 0.00 0.00 0.00 21 1014.1
20260507120804 78 275 7.0 17.0 0.00 0.00 0.00 20 1014.3
20260507120604 78 278 7.0 17.0 0.00 0.00 0.00 23 1014.0
20260507120204 78 273 7.0 17.0 0.00 0.00 0.00 20 1014.1
20260507115804 79 258 7.0 13.0 0.00 0.00 0.00 21 1014.2
20260507115604 79 257 7.0 13.0 0.00 0.00 0.00 22 1014.1
20260507115404 78 254 7.0 14.0 0.00 0.00 0.00 21 1014.2
20260507115205 78 257 7.0 14.0 0.00 0.00 0.00 18 1014.1
20260507114804 78 246 6.0 14.0 0.00 0.00 0.00 22 1014.2
20260507114604 79 253 6.0 14.0 0.00 0.00 0.00 21 1014.1
20260507114409 78 262 6.0 13.0 0.00 0.00 0.00 20 1014.1
20260507114204 79 255 5.0 13.0 0.00 0.00 0.00 23 1014.2
20260507114005 78 260 6.0 14.0 0.00 0.00 0.00 25 1014.3
20260507113804 78 252 6.0 15.0 0.00 0.00 0.00 27 1014.2
20260507113605 78 248 7.0 15.0 0.00 0.00 0.00 31 1014.1
20260507113404 77 255 8.0 17.0 0.00 0.00 0.00 32 1014.2
20260507113205 77 257 9.0 17.0 0.00 0.00 0.00 34 1014.4
20260507112804 78 265 9.0 17.0 0.00 0.00 0.00 36 1014.0
20260507112604 78 264 8.0 17.0 0.00 0.00 0.00 33 1014.4
20260507112405 78 263 8.0 17.0 0.00 0.00 0.00 31 1014.3
20260507112204 78 261 8.0 17.0 0.00 0.00 0.00 32 1014.3
20260507112004 78 261 8.0 17.0 0.00 0.00 0.00 32 1014.5
20260507111804 78 245 8.0 19.0 0.00 0.00 0.00 32 1014.4
20260507111604 79 242 8.0 19.0 0.00 0.00 0.00 32 1014.4
20260507111405 79 236 9.0 19.0 0.00 0.00 0.00 30 1014.2
20260507111204 79 236 8.0 19.0 0.00 0.00 0.00 26 1014.2
20260507111005 78 241 7.0 19.0 0.00 0.00 0.00 23 1013.9
20260507110804 79 258 6.0 17.0 0.00 0.00 0.00 27 1014.1
20260507110604 78 261 6.0 17.0 0.00 0.00 0.00 28 1014.0
20260507110404 79 260 5.0 17.0 0.00 0.00 0.00 32 1013.9
20260507110204 79 259 6.0 17.0 0.00 0.00 0.00 33 1013.9
20260507110005 79 259 6.0 17.0 0.00 0.00 0.00 30 1014.1
20260507105804 79 247 6.0 17.0 0.00 0.00 0.00 28 1014.1
20260507105404 78 265 6.0 17.0 0.00 0.00 0.00 26 1014.0
20260507105004 79 269 5.0 11.0 0.00 0.00 0.00 30 1014.3
20260507104804 79 270 6.0 14.0 0.00 0.00 0.00 29 1014.1
20260507104604 79 261 6.0 14.0 0.00 0.00 0.00 28 1014.1
20260507104405 79 255 6.0 14.0 0.00 0.00 0.00 31 1014.1
20260507104004 77 250 7.0 14.0 0.00 0.00 0.00 34 1014.1
20260507103804 78 244 5.0 14.0 0.00 0.00 0.00 35 1013.9
20260507103604 78 250 5.0 11.0 0.00 0.00 0.00 39 1014.0
20260507103404 78 242 4.0 11.0 0.00 0.00 0.00 38 1013.8
20260507103204 79 248 3.0 10.0 0.00 0.00 0.00 38 1013.8
20260507103004 79 238 3.0 10.0 0.00 0.00 0.00 34 1013.7
20260507102804 79 234 4.0 10.0 0.00 0.00 0.00 44 1013.7
20260507102604 78 248 4.0 10.0 0.00 0.00 0.00 43 1013.9
20260507102404 78 253 4.0 10.0 0.00 0.00 0.00 45 1013.9
20260507102204 78 222 4.0 10.0 0.00 0.00 0.00 47 1013.8
20260507101604 78 239 3.0 9.0 0.00 0.00 0.00 48 1013.9
20260507101404 78 227 4.0 11.0 0.00 0.00 0.00 49 1013.8
20260507101204 78 240 4.0 11.0 0.00 0.00 0.00 52 1014.0
20260507101004 77 240 5.0 11.0 0.00 0.00 0.00 51 1014.0
20260507100604 77 246 5.0 11.0 0.00 0.00 0.00 54 1013.9
20260507100404 78 255 5.0 11.0 0.00 0.00 0.00 52 1013.9
20260507100204 77 257 4.0 9.0 0.00 0.00 0.00 52 1014.0
20260507095804 77 254 4.0 10.0 0.00 0.00 0.00 54 1014.2
20260507095604 76 253 4.0 10.0 0.00 0.00 0.00 55 1014.1
20260507095404 77 253 4.0 10.0 0.00 0.00 0.00 55 1014.0
20260507095004 77 253 4.0 10.0 0.00 0.00 0.00 55 1014.2
20260507094804 77 250 4.0 9.0 0.00 0.00 0.00 54 1013.9
20260507094604 77 248 4.0 10.0 0.00 0.00 0.00 54 1014.2
20260507094405 77 245 5.0 12.0 0.00 0.00 0.00 52 1013.9
20260507094205 77 243 5.0 12.0 0.00 0.00 0.00 51 1014.1
20260507094004 77 246 5.0 12.0 0.00 0.00 0.00 52 1013.8
20260507093804 77 249 5.0 12.0 0.00 0.00 0.00 52 1013.9
20260507093605 77 252 5.0 12.0 0.00 0.00 0.00 51 1013.9
20260507093404 78 258 4.0 10.0 0.00 0.00 0.00 50 1014.0
20260507093005 78 238 4.0 11.0 0.00 0.00 0.00 47 1014.0
20260507092804 78 230 4.0 11.0 0.00 0.00 0.00 46 1013.8
20260507092404 78 236 3.0 11.0 0.00 0.00 0.00 45 1014.0
20260507092005 78 273 3.0 7.0 0.00 0.00 0.00 45 1014.0
20260507091604 78 276 3.0 7.0 0.00 0.00 0.00 45 1013.9
20260507091204 78 267 3.0 7.0 0.00 0.00 0.00 45 1014.0
20260507091004 77 261 3.0 7.0 0.00 0.00 0.00 45 1013.9
20260507090805 77 243 3.0 8.0 0.00 0.00 0.00 45 1014.2
20260507090604 77 251 3.0 8.0 0.00 0.00 0.00 45 1014.0
20260507090404 77 247 3.0 8.0 0.00 0.00 0.00 45 1014.1
20260507090005 77 241 3.0 8.0 0.00 0.00 0.00 44 1014.0
20260507085804 78 231 2.0 8.0 0.00 0.00 0.00 44 1014.0
20260507085604 77 227 2.0 7.0 0.00 0.00 0.00 43 1013.9
20260507085404 77 223 2.0 7.0 0.00 0.00 0.00 43 1014.2
20260507085204 77 223 3.0 6.0 0.00 0.00 0.00 42 1014.0
20260507085004 77 226 2.0 6.0 0.00 0.00 0.00 42 1014.0
20260507084605 78 217 2.0 6.0 0.00 0.00 0.00 40 1014.3
20260507084404 79 217 1.0 6.0 0.00 0.00 0.00 40 1014.4
20260507084204 79 216 1.0 6.0 0.00 0.00 0.00 41 1014.4
20260507084005 78 216 1.0 6.0 0.00 0.00 0.00 42 1014.3
20260507083804 78 229 2.0 6.0 0.00 0.00 0.00 41 1014.2
20260507083605 78 233 2.0 6.0 0.00 0.00 0.00 42 1014.4
20260507083404 78 236 1.0 6.0 0.00 0.00 0.00 41 1014.2
20260507083204 78 247 1.0 6.0 0.00 0.00 0.00 41 1014.2
20260507083005 78 252 1.0 6.0 0.00 0.00 0.00 41 1014.5
20260507082804 78 229 1.0 5.0 0.00 0.00 0.00 42 1014.3
20260507082604 78 229 1.0 6.0 0.00 0.00 0.00 43 1014.2
20260507082404 77 242 2.0 7.0 0.00 0.00 0.00 44 1014.1
20260507082004 75 245 3.0 10.0 0.00 0.00 0.00 45 1014.1
20260507081805 75 252 4.0 10.0 0.00 0.00 0.00 45 1014.1
20260507081604 74 252 4.0 10.0 0.00 0.00 0.00 45 1014.1
20260507081405 75 248 4.0 10.0 0.00 0.00 0.00 45 1014.1
20260507081204 75 246 4.0 10.0 0.00 0.00 0.00 45 1014.3
20260507081005 75 246 4.0 8.0 0.00 0.00 0.00 44 1014.2
20260507080804 75 246 3.0 8.0 0.00 0.00 0.00 44 1014.1
20260507080605 76 246 3.0 8.0 0.00 0.00 0.00 43 1014.3
20260507080404 76 246 4.0 8.0 0.00 0.00 0.00 43 1014.1
20260507080005 76 256 3.0 8.0 0.00 0.00 0.00 43 1014.3
20260507075604 77 258 2.0 7.0 0.00 0.00 0.00 42 1014.2
20260507075404 77 290 2.0 5.0 0.00 0.00 0.00 42 1014.3
20260507075205 77 281 2.0 7.0 0.00 0.00 0.00 41 1014.1
20260507075004 77 268 2.0 7.0 0.00 0.00 0.00 42 1014.2
20260507074804 77 273 2.0 7.0 0.00 0.00 0.00 42 1013.9
20260507074604 77 281 2.0 7.0 0.00 0.00 0.00 42 1014.2
20260507074404 77 279 3.0 7.0 0.00 0.00 0.00 41 1014.0
20260507074204 77 266 2.0 7.0 0.00 0.00 0.00 42 1013.9
20260507074004 77 278 2.0 6.0 0.00 0.00 0.00 40 1014.1
20260507073804 77 273 2.0 6.0 0.00 0.00 0.00 41 1014.0
20260507073604 77 253 2.0 6.0 0.00 0.00 0.00 40 1014.0
20260507073404 77 227 1.0 5.0 0.00 0.00 0.00 40 1013.9
20260507073204 76 226 1.0 5.0 0.00 0.00 0.00 40 1013.9
20260507073004 77 202 1.0 4.0 0.00 0.00 0.00 42 1013.7
20260507072604 77 202 1.0 6.0 0.00 0.00 0.00 42 1013.8
20260507072405 76 215 2.0 6.0 0.00 0.00 0.00 44 1013.6
20260507072204 75 216 2.0 6.0 0.00 0.00 0.00 43 1013.7
20260507071805 75 229 1.0 6.0 0.00 0.00 0.00 43 1013.7
20260507071404 75 240 2.0 6.0 0.00 0.00 0.00 46 1013.9
20260507071204 74 244 2.0 6.0 0.00 0.00 0.00 46 1014.0
20260507071004 74 246 2.0 6.0 0.00 0.00 0.00 46 1014.0
20260507070604 75 216 1.0 6.0 0.00 0.00 0.00 44 1014.2
20260507070404 76 197 1.0 5.0 0.00 0.00 0.00 46 1014.2
20260507070205 76 199 1.0 5.0 0.00 0.00 0.00 46 1014.3
20260507070009 75 207 1.0 5.0 0.00 0.00 0.00 46 1014.3
20260507065405 75 230 1.0 5.0 0.00 0.00 0.00 46 1014.3
20260507065004 75 241 1.0 4.0 0.00 0.00 0.00 46 1014.2
20260507064805 75 247 1.0 8.0 0.00 0.00 0.00 46 1014.1
20260507064604 74 240 2.0 8.0 0.00 0.00 0.00 47 1014.2
20260507064404 73 225 2.0 8.0 0.00 0.00 0.00 49 1014.0
20260507064204 73 227 3.0 8.0 0.00 0.00 0.00 48 1014.2
20260507064004 73 222 2.0 8.0 0.00 0.00 0.00 47 1014.0
20260507063804 73 208 2.0 8.0 0.00 0.00 0.00 47 1014.0
20260507063604 73 212 2.0 8.0 0.00 0.00 0.00 47 1014.1
20260507063404 73 234 3.0 9.0 0.00 0.00 0.00 46 1014.0
20260507063004 72 241 4.0 9.0 0.00 0.00 0.00 48 1014.1
20260507062804 71 247 5.0 9.0 0.00 0.00 0.00 48 1013.8
20260507062604 71 247 5.0 11.0 0.00 0.00 0.00 47 1014.0
20260507062205 71 229 5.0 11.0 0.00 0.00 0.00 47 1013.8
20260507061804 71 230 4.0 11.0 0.00 0.00 0.00 47 1014.0
20260507061604 71 236 4.0 10.0 0.00 0.00 0.00 49 1013.8
20260507061404 71 242 4.0 10.0 0.00 0.00 0.00 50 1013.8
20260507061204 72 237 3.0 9.0 0.00 0.00 0.00 49 1013.8
20260507061004 72 234 3.0 7.0 0.00 0.00 0.00 51 1014.0
20260507060804 72 233 3.0 7.0 0.00 0.00 0.00 52 1013.7
20260507060605 72 225 3.0 7.0 0.00 0.00 0.00 52 1013.7
20260507060205 72 242 3.0 6.0 0.00 0.00 0.00 52 1013.5
20260507060004 72 242 3.0 6.0 0.00 0.00 0.00 51 1013.8
20260507055604 72 241 2.0 4.0 0.00 0.00 0.00 50 1013.6
20260507055404 73 239 2.0 4.0 0.00 0.00 0.00 49 1013.7
20260507055205 73 245 1.0 4.0 0.00 0.00 0.00 49 1013.4
20260507055004 74 243 1.0 3.0 0.00 0.00 0.00 48 1013.6
20260507054805 74 250 0.0 3.0 0.00 0.00 0.00 48 1013.5
20260507054604 74 244 0.0 2.0 0.00 0.00 0.00 50 1013.3
20260507054404 74 238 0.0 2.0 0.00 0.00 0.00 50 1013.3
20260507054204 74 166 0.0 2.0 0.00 0.00 0.00 50 1013.3
20260507054004 74 102 0.0 4.0 0.00 0.00 0.00 52 1013.1
20260507053804 73 116 0.0 4.0 0.00 0.00 0.00 53 1013.3
20260507053604 73 94 1.0 4.0 0.00 0.00 0.00 52 1013.1
20260507053404 72 93 1.0 4.0 0.00 0.00 0.00 52 1013.2
20260507053204 71 82 1.0 4.0 0.00 0.00 0.00 51 1013.2
20260507053005 72 81 1.0 4.0 0.00 0.00 0.00 51 1013.4
20260507052604 72 75 0.0 3.0 0.00 0.00 0.00 50 1013.2
20260507052404 72 80 0.0 3.0 0.00 0.00 0.00 51 1013.1
20260507052204 72 94 0.0 2.0 0.00 0.00 0.00 52 1013.1
20260507052004 72 115 0.0 2.0 0.00 0.00 0.00 54 1013.0
20260507051805 71 84 0.0 2.0 0.00 0.00 0.00 57 1012.9
20260507051604 71 81 0.0 2.0 0.00 0.00 0.00 60 1013.0
20260507051204 70 80 0.0 2.0 0.00 0.00 0.00 64 1013.3
20260507051004 69 76 0.0 2.0 0.00 0.00 0.00 66 1013.1
20260507050804 68 131 0.0 2.0 0.00 0.00 0.00 71 1013.2
20260507050404 66 71 0.0 2.0 0.00 0.00 0.00 74 1013.2
20260507050205 65 74 0.0 2.0 0.00 0.00 0.00 74 1013.1
20260507045804 64 76 0.0 2.0 0.00 0.00 0.00 73 1013.0
20260507045604 63 87 0.0 2.0 0.00 0.00 0.00 73 1013.3
20260507045404 63 140 0.0 2.0 0.00 0.00 0.00 74 1013.4
20260507045204 63 149 0.0 2.0 0.00 0.00 0.00 75 1013.1
20260507045004 63 148 0.0 2.0 0.00 0.00 0.00 75 1013.2
20260507044804 62 148 0.0 2.0 0.00 0.00 0.00 75 1012.9
20260507044604 62 149 0.0 2.0 0.00 0.00 0.00 75 1013.0
20260507044404 62 142 0.0 2.0 0.00 0.00 0.00 76 1013.3
20260507044204 62 135 0.0 2.0 0.00 0.00 0.00 76 1013.1
20260507043804 61 135 0.0 2.0 0.00 0.00 0.00 76 1012.9
20260507043604 61 135 0.0 3.0 0.00 0.00 0.00 76 1013.2
20260507043404 61 135 0.0 3.0 0.00 0.00 0.00 76 1013.1
20260507043204 61 135 0.0 3.0 0.00 0.00 0.00 76 1013.3
20260507043004 60 135 0.0 3.0 0.00 0.00 0.00 76 1012.9
20260507042804 60 135 0.0 3.0 0.00 0.00 0.00 76 1013.0
20260507042604 60 135 0.0 3.0 0.00 0.00 0.00 76 1013.1
20260507042404 60 135 0.0 2.0 0.00 0.00 0.00 76 1013.4
20260507042004 59 135 0.0 1.0 0.00 0.00 0.00 76 1013.1
20260507041804 59 135 0.0 1.0 0.00 0.00 0.00 76 1013.1
20260507041604 59 135 0.0 1.0 0.00 0.00 0.00 76 1013.2
20260507041404 59 135 0.0 1.0 0.00 0.00 0.00 76 1013.4
20260507041204 59 135 0.0 1.0 0.00 0.00 0.00 76 1013.3
20260507041004 58 135 0.0 1.0 0.00 0.00 0.00 76 1013.3
20260507040804 59 135 0.0 1.0 0.00 0.00 0.00 76 1013.1
20260507040404 59 135 0.0 2.0 0.00 0.00 0.00 76 1013.2
20260507040005 58 142 0.0 2.0 0.00 0.00 0.00 77 1013.1
20260507035804 58 142 0.0 2.0 0.00 0.00 0.00 77 1013.1
20260507035604 58 144 0.0 2.0 0.00 0.00 0.00 77 1013.1
20260507035404 58 150 0.0 2.0 0.00 0.00 0.00 77 1013.1
20260507035204 57 158 0.0 2.0 0.00 0.00 0.00 76 1013.6
20260507034804 58 135 0.0 1.0 0.00 0.00 0.00 76 1013.3
20260507034604 57 135 0.0 1.0 0.00 0.00 0.00 76 1013.3
20260507034404 57 135 0.0 1.0 0.00 0.00 0.00 76 1013.4
20260507034204 57 135 0.0 1.0 0.00 0.00 0.00 76 1013.2
20260507034004 57 0 0.0 0.0 0.00 0.00 0.00 76 1013.2
20260507033804 57 0 0.0 0.0 0.00 0.00 0.00 75 1013.3
20260507033404 57 0 0.0 0.0 0.00 0.00 0.00 75 1013.2
20260507033204 57 0 0.0 0.0 0.00 0.00 0.00 75 1013.2
20260507033004 57 0 0.0 0.0 0.00 0.00 0.00 75 1013.0
20260507032804 57 0 0.0 0.0 0.00 0.00 0.00 74 1013.0
20260507032604 58 0 0.0 0.0 0.00 0.00 0.00 74 1013.0
20260507032404 58 0 0.0 0.0 0.00 0.00 0.00 74 1012.9
20260507032004 58 135 0.0 1.0 0.00 0.00 0.00 73 1013.2
20260507031604 58 135 0.0 2.0 0.00 0.00 0.00 73 1013.0
20260507031404 58 135 0.0 2.0 0.00 0.00 0.00 73 1012.7
20260507031204 58 135 0.0 2.0 0.00 0.00 0.00 73 1012.8
20260507031005 59 135 0.0 2.0 0.00 0.00 0.00 73 1013.0
20260507030804 59 135 0.0 2.0 0.00 0.00 0.00 74 1013.0
20260507030604 59 135 0.0 2.0 0.00 0.00 0.00 73 1013.1
20260507030404 59 135 0.0 2.0 0.00 0.00 0.00 72 1013.0
20260507030204 59 135 0.0 1.0 0.00 0.00 0.00 72 1012.8
20260507030005 60 135 0.0 1.0 0.00 0.00 0.00 72 1013.0
20260507025804 59 135 0.0 2.0 0.00 0.00 0.00 72 1012.7
20260507025604 59 127 0.0 2.0 0.00 0.00 0.00 72 1012.9
20260507025405 60 115 0.0 2.0 0.00 0.00 0.00 72 1012.8
20260507025204 60 111 0.0 2.0 0.00 0.00 0.00 72 1012.8
20260507025004 60 107 0.0 2.0 0.00 0.00 0.00 72 1012.8
20260507024805 60 95 0.0 2.0 0.00 0.00 0.00 72 1012.9
20260507024604 60 106 0.0 2.0 0.00 0.00 0.00 72 1012.8
20260507024405 60 135 0.0 3.0 0.00 0.00 0.00 70 1012.8
20260507024204 60 140 0.0 3.0 0.00 0.00 0.00 70 1012.8
20260507024004 60 142 0.0 3.0 0.00 0.00 0.00 70 1012.7
20260507023805 60 142 0.0 3.0 0.00 0.00 0.00 70 1012.9
20260507023604 60 156 0.0 3.0 0.00 0.00 0.00 70 1012.8
20260507023404 61 199 1.0 4.0 0.00 0.00 0.00 70 1012.8
20260507023205 61 197 1.0 4.0 0.00 0.00 0.00 69 1012.8
20260507022805 61 214 1.0 4.0 0.00 0.00 0.00 70 1012.8
20260507022604 61 219 1.0 4.0 0.00 0.00 0.00 70 1012.6
20260507022404 61 207 1.0 3.0 0.00 0.00 0.00 69 1012.8
20260507021805 61 248 0.0 2.0 0.00 0.00 0.00 68 1012.8
20260507021604 61 225 1.0 4.0 0.00 0.00 0.00 68 1012.9
20260507021404 61 206 1.0 4.0 0.00 0.00 0.00 68 1012.7
20260507021205 61 196 1.0 4.0 0.00 0.00 0.00 67 1012.7
20260507021004 61 189 1.0 4.0 0.00 0.00 0.00 67 1012.6
20260507020804 61 188 1.0 4.0 0.00 0.00 0.00 67 1012.8
20260507020604 61 199 2.0 5.0 0.00 0.00 0.00 66 1012.4
20260507020404 61 214 2.0 5.0 0.00 0.00 0.00 66 1012.8
20260507020205 61 218 1.0 5.0 0.00 0.00 0.00 66 1012.8
20260507020004 61 220 1.0 5.0 0.00 0.00 0.00 66 1012.7
20260507015804 61 214 2.0 5.0 0.00 0.00 0.00 66 1012.8
20260507015605 61 200 1.0 4.0 0.00 0.00 0.00 66 1012.7
20260507015404 61 193 1.0 4.0 0.00 0.00 0.00 67 1012.8
20260507015005 61 204 1.0 4.0 0.00 0.00 0.00 67 1012.7
20260507014604 61 218 1.0 4.0 0.00 0.00 0.00 66 1012.7
20260507014405 61 216 1.0 4.0 0.00 0.00 0.00 67 1012.7
20260507014204 61 222 1.0 4.0 0.00 0.00 0.00 67 1012.8
20260507014004 61 211 1.0 4.0 0.00 0.00 0.00 67 1012.8
20260507013805 61 203 1.0 4.0 0.00 0.00 0.00 66 1012.6
20260507013404 61 215 2.0 4.0 0.00 0.00 0.00 67 1012.6
20260507013005 61 215 1.0 4.0 0.00 0.00 0.00 67 1012.6
20260507012804 61 224 1.0 4.0 0.00 0.00 0.00 67 1012.5
20260507012604 61 222 1.0 4.0 0.00 0.00 0.00 68 1012.5
20260507012404 61 223 1.0 3.0 0.00 0.00 0.00 68 1012.4
20260507012204 61 233 1.0 3.0 0.00 0.00 0.00 68 1012.4
20260507012004 61 221 1.0 3.0 0.00 0.00 0.00 68 1012.2
20260507011804 61 208 1.0 3.0 0.00 0.00 0.00 68 1012.2
20260507011605 61 208 1.0 2.0 0.00 0.00 0.00 68 1012.2
20260507011405 61 211 1.0 2.0 0.00 0.00 0.00 68 1011.9
20260507011004 61 232 1.0 2.0 0.00 0.00 0.00 68 1011.9
20260507010804 61 240 1.0 4.0 0.00 0.00 0.00 68 1012.0
20260507010404 60 218 1.0 4.0 0.00 0.00 0.00 69 1012.2
20260507010204 60 209 2.0 4.0 0.00 0.00 0.00 69 1012.0
20260507010004 60 199 2.0 4.0 0.00 0.00 0.00 69 1011.9
20260507005805 60 192 1.0 4.0 0.00 0.00 0.00 69 1012.0
20260507005604 60 190 1.0 4.0 0.00 0.00 0.00 69 1012.0
20260507005404 60 186 1.0 4.0 0.00 0.00 0.00 69 1011.9
20260507004805 60 181 0.0 2.0 0.00 0.00 0.00 68 1012.0
20260507004604 60 181 0.0 2.0 0.00 0.00 0.00 69 1012.0
20260507004404 59 181 0.0 2.0 0.00 0.00 0.00 68 1012.0
20260507004205 59 181 0.0 2.0 0.00 0.00 0.00 68 1012.0
20260507004004 59 181 0.0 2.0 0.00 0.00 0.00 68 1012.0
20260507003804 59 181 0.0 2.0 0.00 0.00 0.00 68 1012.0
20260507003605 59 181 0.0 1.0 0.00 0.00 0.00 68 1011.9
20260507003404 59 181 0.0 1.0 0.00 0.00 0.00 68 1011.9
20260507003204 59 181 0.0 1.0 0.00 0.00 0.00 67 1011.8
20260507003005 59 181 0.0 2.0 0.00 0.00 0.00 67 1011.8
20260507002804 59 181 0.0 2.0 0.00 0.00 0.00 67 1012.1
20260507002405 59 181 0.0 2.0 0.00 0.00 0.00 67 1011.8
20260507002204 59 181 0.0 2.0 0.00 0.00 0.00 67 1011.7
20260507002004 59 181 0.0 2.0 0.00 0.00 0.00 66 1011.9
20260507001804 59 181 0.0 2.0 0.00 0.00 0.00 66 1011.9
20260507001604 59 181 0.0 1.0 0.00 0.00 0.00 66 1012.0
20260507001405 59 181 0.0 1.0 0.00 0.00 0.00 66 1011.8
20260507001205 59 181 0.0 1.0 0.00 0.00 0.00 66 1011.9
20260507000804 59 181 0.0 2.0 0.00 0.00 0.00 66 1012.0
20260507000607 60 181 0.0 2.0 0.00 0.00 0.00 66 1012.0
20260507000405 60 181 0.0 2.0 0.00 0.00 0.00 66 1012.3
20260507000004 60 181 0.0 2.0 0.00 0.00 0.00 66 1012.3
20260506235604 60 181 0.0 1.0 0.00 0.00 0.00 66 1012.3
20260506235404 60 181 0.0 1.0 0.00 0.00 0.00 66 1012.3
20260506235205 60 181 0.0 1.0 0.00 0.00 0.00 66 1012.4
20260506235004 60 181 0.0 2.0 0.00 0.00 0.00 66 1012.5
20260506234805 60 181 0.0 2.0 0.00 0.00 0.00 65 1012.3
20260506234405 60 181 0.0 2.0 0.00 0.00 0.00 65 1012.5
20260506234204 60 181 0.0 2.0 0.00 0.00 0.00 66 1012.4
20260506234004 60 181 0.0 2.0 0.00 0.00 0.00 65 1012.7
20260506233804 60 181 0.0 2.0 0.00 0.00 0.00 65 1012.7
20260506233604 60 181 0.0 2.0 0.00 0.00 0.00 65 1012.7
20260506233404 60 181 0.0 2.0 0.00 0.00 0.00 66 1012.7
20260506233204 60 181 0.0 2.0 0.00 0.00 0.00 66 1012.7
20260506233006 60 181 0.0 1.0 0.00 0.00 0.00 66 1012.6
20260506232804 60 181 0.0 1.0 0.00 0.00 0.00 65 1012.8